[[{"header":{"parameterUnit":"m.s-1","parameterCategory":2,"la1":30.2991,"la2":30.254,"lo1":-89.0895,"lo2":-89.0444,"dy":0.0017,"dx":0.0017,"nx":28,"ny":28,"refTime":"2024-05-12T21:00:00:Z","depth":"0","parameterNumber":2,"parameterNumberName":"U-component_of_CURRENTS"},"data":[0,0,0,0,0,0,0,0,0,0,0,0,0,0,0,0,0,0,0,0,0,0,0,0,0,0,0,0,0,0,0,0,0,0,0,0,0,0,0,0,0,0,0,0,0,0,0,0,0,0,0,0,0,0,0,0,0,0,0.0133,0.0133,0,0.0139,0.0139,0.0139,0.0157,0.0157,0.0158,0.0158,0.0194,0.0195,0.0195,0,0,0,0,0,0,0,0,0,0,0,0,0,0.0152,0.0151,0.0133,0.0133,0.0133,0.0139,0.0139,0.0139,0.0157,0.0157,0.0158,0.0158,0.0194,0.0194,0.0195,0,0,0,0,0,0,0,0,0,0,0,0,0,0.0149,0.0151,0.0133,0.0143,0.0144,0.0139,0.0139,0.0139,0.0157,0.0157,0.0158,0.0158,0.0194,0.0194,0.0195,0.0188,0,0,0.0198,0.0198,0,0,0,0,0,0,0,0,0.0149,0.0148,0.0141,0.0142,0.0143,0.0148,0.0159,0.0157,0.0156,0.0151,0.0158,0.0159,0.0181,0.0183,0.0182,0.0189,0.0191,0.0198,0.0198,0.0199,0.0199,0,0,0,0,0,0,0,0.0149,0.0148,0.0135,0.0141,0.0142,0.0153,0.0153,0.0159,0.0163,0.0152,0.0153,0.0154,0.0182,0.0181,0.0183,0.0191,0.0198,0.0199,0.0199,0.0199,0.0201,0.0201,0,0,0,0,0,0,0.0148,0.0148,0.0135,0.0135,0.0148,0.0152,0.0152,0.0146,0.0162,0.0165,0.0154,0.0155,0.0179,0.0182,0.0184,0.0191,0.0199,0.02,0.02,0.0202,0.0201,0.02,0,0,0,0,0,0,0.0148,0.0146,0.0134,0.0143,0.0142,0.0151,0.0144,0.0145,0.0151,0.0163,0.0167,0.0159,0.018,0.0183,0.0189,0.0193,0.02,0.0201,0.0202,0.0201,0.0201,0.0196,0,0,0,0,0,0,0.0148,0.0146,0.0142,0.0142,0.0141,0.0133,0.0143,0.0145,0.0151,0.0153,0.0169,0.0172,0.0181,0.0188,0.019,0.0194,0.0201,0.0203,0.0202,0.0201,0.0197,0.0195,0.0194,0,0,0,0,0,0.0149,0.0138,0.0141,0.014,0.0135,0.0133,0.0134,0.0142,0.015,0.015,0.0159,0.0172,0.0184,0.0188,0.0191,0.0195,0.0203,0.0202,0.0201,0.0198,0.0196,0.0194,0,0,0,0,0,0,0.0147,0.0139,0.0142,0.0131,0.0134,0.0137,0.0137,0.0143,0.0149,0.0154,0.0167,0.017,0.0176,0.0182,0.0186,0.0191,0.0195,0.0195,0.0192,0.019,0.0189,0.0208,0.0202,0,0,0,0,0,0.0143,0.0132,0.0133,0.0125,0.0126,0.0133,0.0134,0.014,0.0145,0.0149,0.0159,0.0167,0.0171,0.0179,0.0182,0.0186,0.0224,0.0189,0.0188,0.0187,0.0203,0.0241,0.0245,0.0197,0.0197,0.0197,0,0,0.0139,0.0135,0.0129,0.0124,0.0127,0.0128,0.0135,0.0137,0.0141,0.0152,0.0159,0.0163,0.017,0.0173,0.0176,0.0182,0.0224,0.0185,0.0185,0.0202,0.024,0.0246,0.025,0.0196,0.0196,0.0197,0,0,0.0131,0.0125,0.0117,0.0119,0.0123,0.0126,0.0128,0.0133,0.0138,0.0142,0.0149,0.0159,0.0162,0.0173,0.0177,0.0171,0.0212,0.0164,0.018,0.0216,0.0221,0.0226,0.0302,0.0313,0.0167,0.0167,0.0167,0,0.0132,0.0123,0.0116,0.0115,0.0122,0.0126,0.013,0.013,0.0137,0.0149,0.0144,0.0163,0.0166,0.0183,0.0178,0.0171,0.021,0.0187,0.0217,0.0222,0.0227,0.0303,0.0316,0.0167,0.0167,0.0167,0.0167,0,0.0119,0.012,0.0117,0.0117,0.0119,0.0123,0.0126,0.0133,0.014,0.0148,0.0165,0.0167,0.0189,0.0178,0.0177,0.0208,0.0231,0.0209,0.0226,0.0232,0.0312,0.0326,0.0167,0.0167,0.0167,0.0167,0,0,0.0113,0.011,0.0113,0.0125,0.0125,0.0131,0.0134,0.015,0.0174,0.0169,0.0204,0.0195,0.021,0.0216,0.0214,0.0237,0.0305,0.0238,0.024,0.0325,0.0421,0.0587,0.0619,0.0285,0.0287,0.0288,0.0471,0,0.0115,0.0122,0.0114,0.0131,0.0142,0.0147,0.0158,0.0171,0.0184,0.0215,0.0221,0.025,0.0218,0.0242,0.0254,0.0296,0.0337,0.026,0.0394,0.0399,0.0555,0.0638,0.0702,0.0884,0.0485,0.0487,0.0489,0,0.0112,0.0121,0.0137,0.0162,0.0168,0.0178,0.0216,0.0224,0.0256,0.0271,0.0293,0.0306,0.035,0.0314,0.0402,0.0355,0.0394,0.0418,0.0425,0.0595,0.0591,0.0808,0.0924,0.0887,0.051,0.0508,0.0507,0,0.013,0.0142,0.0161,0.0167,0.0188,0.0208,0.0223,0.0251,0.0284,0.0322,0.0379,0.0392,0.0467,0.0472,0.0548,0.0474,0.0668,0.057,0.0759,0.0772,0.0865,0.0884,0.0974,0.0638,0.0638,0.0637,0.0637,0,0.0142,0.016,0.0177,0.0193,0.0234,0.0236,0.0286,0.0304,0.0354,0.043,0.0423,0.0525,0.0512,0.0621,0.061,0.0789,0.0733,0.0811,0.0844,0.0869,0.0886,0.0888,0.0826,0.0644,0.0643,0.0641,0.064,0,0.0162,0.0167,0.0199,0.023,0.0246,0.0279,0.0336,0.038,0.0428,0.0535,0.0566,0.0674,0.0844,0.0871,0.0954,0.0952,0.1036,0.1105,0.1171,0.121,0.1318,0.1253,0.1303,0.1255,0.1322,0.1327,0.1332,0,0.0171,0.0189,0.0234,0.0268,0.0288,0.0334,0.0378,0.0413,0.0474,0.0652,0.0729,0.0935,0.11,0.1327,0.1381,0.1469,0.1305,0.1558,0.1416,0.1397,0.1345,0.1161,0.1098,0.1533,0.1538,0.1543,0.1547,0,0.0201,0.0218,0.0249,0.0319,0.037,0.0423,0.0492,0.0552,0.0635,0.0758,0.0984,0.1137,0.1427,0.1608,0.1767,0.1785,0.1503,0.1664,0.1602,0.1521,0.1365,0.1312,0.1351,0.159,0.1585,0.1582,0.158,0.1578,0.0231,0.0264,0.0315,0.0382,0.0441,0.0524,0.0584,0.0682,0.0815,0.1025,0.1163,0.1419,0.169,0.1954,0.1967,0.205,0.1864,0.1974,0.1902,0.172,0.1662,0.1848,0.2144,0.2143,0.2142,0.2142,0.2141,0,0.0275,0.0318,0.0381,0.0465,0.054,0.0561,0.0675,0.0749,0.0927,0.1154,0.1368,0.1727,0.1965,0.2103,0.2298,0.2266,0.2034,0.2195,0.1896,0.182,0.1988,0.1987,0.2315,0.2315,0.2315,0.2315,0.2315,0.2315,0.0304,0.0372,0.0407,0.0542,0.0606,0.071,0.078,0.0904,0.1061,0.1371,0.1604,0.1789,0.2073,0.2329,0.2393,0.2333,0.2057,0.2052,0.1906,0.1991,0.1959,0.1929,0.1914,0.2221,0.222,0.1674,0.167,0.1667]},{"header":{"parameterUnit":"m.s-1","parameterCategory":2,"la1":30.2991,"la2":30.254,"lo1":-89.0895,"lo2":-89.0444,"dy":0.0017,"dx":0.0017,"nx":28,"ny":28,"refTime":"2024-05-12T21:00:00:Z","depth":"0","parameterNumber":3,"parameterNumberName":"V-component_of_CURRENTS"},"data":[0,0,0,0,0,0,0,0,0,0,0,0,0,0,0,0,0,0,0,0,0,0,0,0,0,0,0,0,0,0,0,0,0,0,0,0,0,0,0,0,0,0,0,0,0,0,0,0,0,0,0,0,0,0,0,0,0,0,-0.018,-0.018,0,-0.0187,-0.0187,-0.0187,-0.0214,-0.0214,-0.0215,-0.0216,-0.022,-0.022,-0.0219,0,0,0,0,0,0,0,0,0,0,0,0,0,-0.0157,-0.0157,-0.018,-0.018,-0.018,-0.0187,-0.0187,-0.0187,-0.0214,-0.0214,-0.0215,-0.0216,-0.022,-0.022,-0.0219,0,0,0,0,0,0,0,0,0,0,0,0,0,-0.0166,-0.0157,-0.018,-0.0194,-0.0195,-0.0187,-0.0187,-0.0187,-0.0213,-0.0214,-0.0215,-0.0216,-0.0221,-0.022,-0.0219,-0.0197,0,0,-0.0217,-0.0217,0,0,0,0,0,0,0,0,-0.0165,-0.0167,-0.0192,-0.0193,-0.0195,-0.02,-0.0181,-0.019,-0.0213,-0.0207,-0.0216,-0.0217,-0.0213,-0.0213,-0.0212,-0.0197,-0.0197,-0.0217,-0.0217,-0.0217,-0.0216,0,0,0,0,0,0,0,-0.0165,-0.0166,-0.0183,-0.0192,-0.0194,-0.0189,-0.0192,-0.0182,-0.0204,-0.0207,-0.0209,-0.021,-0.0214,-0.0213,-0.0212,-0.0197,-0.0217,-0.0217,-0.0216,-0.0216,-0.0145,-0.0144,0,0,0,0,0,0,-0.0164,-0.0166,-0.0182,-0.0183,-0.0182,-0.0189,-0.0192,-0.0198,-0.0205,-0.0207,-0.0209,-0.0211,-0.0213,-0.0213,-0.0213,-0.0191,-0.0217,-0.0216,-0.0216,-0.0147,-0.0145,-0.0143,0,0,0,0,0,0,-0.0164,-0.0166,-0.0182,-0.0174,-0.0176,-0.0188,-0.0195,-0.0197,-0.02,-0.0206,-0.0208,-0.021,-0.0214,-0.0214,-0.0199,-0.0191,-0.0216,-0.0215,-0.0148,-0.0146,-0.0144,-0.0144,0,0,0,0,0,0,-0.0163,-0.0166,-0.0169,-0.0174,-0.0176,-0.0175,-0.0194,-0.0197,-0.0199,-0.0202,-0.0207,-0.0208,-0.0215,-0.02,-0.0198,-0.0191,-0.0214,-0.015,-0.0147,-0.0145,-0.0146,-0.0142,-0.0139,0,0,0,0,0,-0.0163,-0.0159,-0.0169,-0.0171,-0.018,-0.0175,-0.0175,-0.0187,-0.0198,-0.0194,-0.0195,-0.0208,-0.0181,-0.0198,-0.0197,-0.0189,-0.0152,-0.0148,-0.0145,-0.0148,-0.0143,-0.0139,0,0,0,0,0,0,-0.0147,-0.0161,-0.0172,-0.0173,-0.0175,-0.018,-0.0176,-0.0184,-0.0181,-0.0185,-0.0193,-0.0194,-0.0177,-0.0173,-0.0192,-0.0155,-0.0166,-0.0163,-0.0169,-0.0164,-0.0161,-0.0183,-0.0214,0,0,0,0,0,-0.0145,-0.015,-0.0159,-0.0159,-0.016,-0.0168,-0.0167,-0.0175,-0.0174,-0.0175,-0.0177,-0.0171,-0.0159,-0.0156,-0.0145,-0.0127,-0.0134,-0.0116,-0.0113,-0.011,-0.0123,-0.013,-0.0129,-0.0132,-0.0132,-0.0132,0,0,-0.0138,-0.0147,-0.015,-0.0156,-0.016,-0.0158,-0.017,-0.0167,-0.0167,-0.0174,-0.0169,-0.016,-0.015,-0.0132,-0.0123,-0.0131,-0.0105,-0.0106,-0.0104,-0.0119,-0.0126,-0.0126,-0.0127,-0.013,-0.013,-0.0131,0,0,-0.0125,-0.0135,-0.0136,-0.0137,-0.0143,-0.0147,-0.0146,-0.0149,-0.0152,-0.0141,-0.0144,-0.0135,-0.0114,-0.0112,-0.0107,-0.0074,-0.0086,-0.0057,-0.0063,-0.0068,-0.0069,-0.007,-0.0059,-0.0059,-0.0057,-0.0057,-0.0057,0,-0.0115,-0.0124,-0.0131,-0.0132,-0.0135,-0.0142,-0.0142,-0.0139,-0.0137,-0.014,-0.0139,-0.0118,-0.011,-0.0099,-0.0085,-0.0071,-0.0068,-0.0086,-0.0068,-0.0069,-0.007,-0.0058,-0.0058,-0.0057,-0.0057,-0.0057,-0.0057,0,-0.0105,-0.0113,-0.0109,-0.012,-0.012,-0.0118,-0.0121,-0.0119,-0.0122,-0.0126,-0.0116,-0.0105,-0.0099,-0.0083,-0.0075,-0.0069,-0.0061,-0.0065,-0.0089,-0.0071,-0.0058,-0.0058,-0.0056,-0.0056,-0.0056,-0.0057,0,0,-0.0082,-0.0101,-0.0101,-0.0112,-0.0117,-0.0118,-0.0113,-0.0117,-0.012,-0.0115,-0.0117,-0.0097,-0.0101,-0.0093,-0.0081,-0.0082,-0.0075,-0.0075,-0.0075,-0.0081,-0.0073,-0.005,-0.0048,-0.0079,-0.0079,-0.0079,-0.0055,0,-0.0074,-0.0083,-0.0092,-0.0098,-0.0104,-0.0112,-0.0109,-0.0112,-0.0112,-0.0109,-0.0109,-0.0096,-0.01,-0.0088,-0.0096,-0.0073,-0.0078,-0.008,-0.0075,-0.0075,-0.0072,-0.0049,-0.0057,-0.0035,-0.0055,-0.0055,-0.0055,0,-0.0063,-0.0075,-0.0085,-0.0104,-0.0106,-0.0108,-0.0117,-0.0115,-0.0113,-0.0109,-0.0113,-0.0105,-0.0096,-0.0101,-0.0094,-0.0093,-0.009,-0.0081,-0.008,-0.0066,-0.0053,-0.0058,-0.0035,-0.0163,-0.0056,-0.0056,-0.0056,0,-0.0056,-0.007,-0.0085,-0.009,-0.0106,-0.0112,-0.0117,-0.0119,-0.01,-0.0107,-0.0072,-0.01,-0.0058,-0.0093,-0.0065,-0.0082,-0.0049,-0.0073,-0.0056,-0.0054,-0.0065,-0.0063,-0.0185,-0.0089,-0.0089,-0.0089,-0.0089,0,-0.0048,-0.0058,-0.0085,-0.0093,-0.0104,-0.0115,-0.0115,-0.0119,-0.0093,-0.0034,-0.0069,0.0002,-0.005,-0.0025,-0.0058,-0.004,-0.0048,-0.0058,-0.005,-0.0059,-0.0057,-0.0172,-0.0237,-0.0088,-0.0088,-0.0089,-0.0089,0,-0.0037,-0.0056,-0.0074,-0.0098,-0.0103,-0.0111,-0.0094,-0.0077,-0.0054,0.0032,0.0048,0.0097,0.0137,0.0085,0.007,0.0016,-0.0065,-0.0002,0.0003,0.001,-0.0121,-0.0183,-0.0266,-0.0315,-0.0004,-0.0004,-0.0003,0,-0.0032,-0.0045,-0.0075,-0.0075,-0.0085,-0.0092,-0.0078,-0.0066,-0.0003,0.0127,0.0204,0.026,0.0349,0.031,0.0193,0.0107,-0.0,0.0038,-0.0013,-0.0132,-0.0197,-0.024,-0.0279,-0.0017,-0.0016,-0.0016,-0.0016,0,-0.0023,-0.004,-0.0053,-0.0052,-0.0047,-0.0027,0.0018,0.0085,0.0164,0.0278,0.0471,0.0547,0.0514,0.0443,0.0293,0.0215,-0.0066,0.0043,-0.0094,-0.023,-0.0274,-0.0314,-0.0018,-0.0013,-0.0013,-0.0013,-0.0013,-0.0013,-0.0012,-0.0016,-0.0026,-0.0019,0.0002,0.0082,0.0151,0.0258,0.0405,0.0646,0.0687,0.086,0.0668,0.047,0.0303,-0.0021,-0.0014,-0.0124,-0.0189,-0.0221,-0.0283,0.0031,0.0052,0.0052,0.0052,0.0052,0.0052,0,0.0011,0.0014,0.002,0.0054,0.012,0.0117,0.0258,0.0387,0.0626,0.082,0.1006,0.1046,0.0778,0.048,0.0042,-0.0214,-0.0327,-0.0357,-0.0458,-0.0487,-0.0222,-0.024,-0.0266,-0.0266,-0.0266,-0.0266,-0.0266,-0.0265,0.0027,0.0045,0.0052,0.0165,0.0214,0.0357,0.0466,0.0675,0.0856,0.1169,0.132,0.1391,0.1198,0.0279,-0.0334,-0.0485,-0.0671,-0.0706,-0.0787,-0.0657,-0.0641,-0.0627,-0.0662,-0.0777,-0.0777,-0.1037,-0.104,-0.1042]}],[{"header":{"parameterUnit":"m.s-1","parameterCategory":2,"la1":30.2991,"la2":30.254,"lo1":-89.0895,"lo2":-89.0444,"dy":0.0017,"dx":0.0017,"nx":28,"ny":28,"refTime":"2024-05-12T21:00:00:Z","depth":"2","parameterNumber":2,"parameterNumberName":"U-component_of_CURRENTS"},"data":[0,0,0,0,0,0,0,0,0,0,0,0,0,0,0,0,0,0,0,0,0,0,0,0,0,0,0,0,0,0,0,0,0,0,0,0,0,0,0,0,0,0,0,0,0,0,0,0,0,0,0,0,0,0,0,0,0,0,0.0079,0.0079,0,0.0089,0.0089,0.0089,0.0108,0.0109,0.0109,0.011,0.0146,0.0147,0.0147,0,0,0,0,0,0,0,0,0,0,0,0,0,0.0093,0.0092,0.0079,0.0079,0.0079,0.0089,0.0089,0.0089,0.0108,0.0109,0.0109,0.011,0.0146,0.0147,0.0147,0,0,0,0,0,0,0,0,0,0,0,0,0,0.0093,0.0092,0.0079,0.0091,0.0092,0.0089,0.0089,0.0089,0.0108,0.0109,0.0109,0.011,0.0146,0.0147,0.0148,0.014,0,0,0.015,0.0151,0,0,0,0,0,0,0,0,0.0093,0.0092,0.0089,0.009,0.0091,0.0098,0.0107,0.0107,0.0108,0.0101,0.011,0.011,0.0133,0.0135,0.0134,0.0142,0.0143,0.015,0.0151,0.0151,0.0151,0,0,0,0,0,0,0,0.0093,0.0092,0.0082,0.0089,0.009,0.01,0.0101,0.0107,0.0113,0.0102,0.0104,0.0105,0.0133,0.0133,0.0135,0.0144,0.015,0.0151,0.0152,0.0152,0.0153,0.0153,0,0,0,0,0,0,0.0091,0.0092,0.0082,0.0083,0.0094,0.01,0.01,0.0095,0.0113,0.0116,0.0105,0.0106,0.0131,0.0134,0.0136,0.0143,0.0151,0.0152,0.0152,0.0153,0.0153,0.0152,0,0,0,0,0,0,0.0091,0.0089,0.0082,0.0088,0.0088,0.0099,0.0093,0.0095,0.0101,0.0114,0.0118,0.011,0.0132,0.0135,0.0141,0.0144,0.0152,0.0153,0.0154,0.0153,0.0153,0.0148,0,0,0,0,0,0,0.0091,0.0089,0.0086,0.0088,0.0088,0.0081,0.0092,0.0095,0.0101,0.0103,0.012,0.0124,0.0133,0.014,0.0142,0.0146,0.0154,0.0155,0.0154,0.0153,0.0149,0.0147,0.0146,0,0,0,0,0,0.0091,0.0082,0.0085,0.0085,0.0082,0.0081,0.0082,0.0092,0.0101,0.0101,0.011,0.0124,0.0136,0.014,0.0143,0.0147,0.0155,0.0154,0.0153,0.0149,0.0147,0.0146,0,0,0,0,0,0,0.0087,0.0083,0.0087,0.0077,0.0081,0.0085,0.0086,0.0093,0.0099,0.0104,0.0118,0.0122,0.0127,0.0133,0.0138,0.0142,0.0147,0.0147,0.0144,0.0142,0.014,0.0159,0.0155,0,0,0,0,0,0.0084,0.0075,0.0077,0.0071,0.0073,0.008,0.0082,0.0089,0.0094,0.0099,0.0109,0.0118,0.0122,0.013,0.0133,0.0137,0.0174,0.014,0.0139,0.0138,0.0154,0.0193,0.0198,0.0149,0.0149,0.0149,0,0,0.0079,0.0078,0.0073,0.007,0.0074,0.0076,0.0083,0.0086,0.009,0.0101,0.0109,0.0113,0.012,0.0123,0.0127,0.0133,0.0174,0.0136,0.0136,0.0152,0.0193,0.0198,0.0202,0.0148,0.0148,0.0148,0,0,0.0072,0.0067,0.0062,0.0064,0.007,0.0073,0.0075,0.0081,0.0087,0.009,0.0098,0.0108,0.0111,0.0122,0.0127,0.012,0.0161,0.0114,0.0129,0.0166,0.0172,0.0177,0.0247,0.0259,0.0117,0.0117,0.0117,0,0.0072,0.0066,0.0062,0.0062,0.0068,0.0073,0.0077,0.0077,0.0085,0.0097,0.0092,0.0111,0.0115,0.0132,0.0126,0.012,0.0158,0.0136,0.0167,0.0173,0.0178,0.0249,0.0262,0.0117,0.0117,0.0117,0.0117,0,0.0063,0.0063,0.0062,0.0064,0.0065,0.0069,0.0072,0.0079,0.0086,0.0095,0.0111,0.0113,0.0135,0.0125,0.0125,0.0156,0.0178,0.0159,0.0177,0.0183,0.0257,0.027,0.0116,0.0117,0.0117,0.0117,0,0,0.0056,0.0057,0.0059,0.007,0.007,0.0075,0.0078,0.0093,0.0115,0.0113,0.0146,0.0139,0.0154,0.016,0.016,0.0185,0.0252,0.0188,0.019,0.027,0.0367,0.0505,0.0533,0.0236,0.0238,0.0239,0.0411,0,0.0059,0.0066,0.0061,0.0074,0.0083,0.0088,0.0098,0.0111,0.0123,0.0154,0.0161,0.0189,0.0162,0.0184,0.02,0.0242,0.0283,0.0209,0.034,0.0345,0.0476,0.0551,0.0473,0.0631,0.0424,0.0427,0.0428,0,0.0058,0.0066,0.0079,0.01,0.0105,0.0113,0.0146,0.0154,0.0186,0.0202,0.0225,0.024,0.0285,0.0253,0.0342,0.0298,0.0338,0.0363,0.037,0.0514,0.0509,0.0587,0.0663,0.0451,0.0449,0.0447,0.0446,0,0.0072,0.0082,0.0098,0.0102,0.0121,0.0137,0.015,0.0177,0.021,0.0247,0.0301,0.0319,0.0391,0.0402,0.0478,0.041,0.0598,0.0508,0.0674,0.0684,0.0656,0.0662,0.058,0.058,0.0579,0.0579,0.0578,0,0.0082,0.0096,0.0111,0.0123,0.0158,0.016,0.0205,0.0222,0.0271,0.0346,0.0341,0.0438,0.0435,0.0541,0.0535,0.07,0.0657,0.0721,0.0751,0.0655,0.066,0.0517,0.0508,0.0585,0.0584,0.0582,0.0581,0,0.0097,0.0102,0.0128,0.0154,0.0168,0.0196,0.025,0.0291,0.0338,0.0444,0.0474,0.0576,0.0738,0.0769,0.0855,0.0849,0.0929,0.0992,0.0913,0.0932,0.0962,0.0949,0.1166,0.1173,0.1179,0.1183,0.1187,0,0.0105,0.012,0.0157,0.0189,0.0206,0.0247,0.0288,0.0321,0.0378,0.0553,0.0626,0.0822,0.097,0.1178,0.1203,0.1278,0.1185,0.1249,0.1098,0.1022,0.1028,0.1006,0.0987,0.1048,0.1051,0.1053,0.1054,0,0.0129,0.0143,0.0169,0.0234,0.028,0.0329,0.0394,0.0448,0.053,0.0652,0.0865,0.1001,0.1241,0.1332,0.1463,0.1452,0.1217,0.13,0.1253,0.0933,0.0931,0.093,0.091,0.1072,0.107,0.1069,0.1068,0.1067,0.0154,0.0181,0.0227,0.0289,0.0344,0.042,0.0477,0.0569,0.0695,0.0889,0.1015,0.1217,0.1293,0.149,0.1482,0.1454,0.1494,0.1367,0.135,0.1334,0.1312,0.1322,0.1533,0.1534,0.1535,0.1536,0.1536,0,0.0189,0.0229,0.0288,0.0363,0.0431,0.0457,0.0562,0.063,0.0798,0.0989,0.118,0.123,0.1366,0.1413,0.1419,0.1438,0.1286,0.1362,0.1133,0.1123,0.1111,0.1064,0.1226,0.1225,0.1223,0.1222,0,0,0.0214,0.0275,0.0307,0.043,0.0493,0.0594,0.0661,0.0772,0.0902,0.1067,0.1191,0.1388,0.1451,0.1347,0.1337,0.1291,0.1173,0.124,0.1505,0.123,0.1216,0.1157,0.1083,0,0,0,0,0]},{"header":{"parameterUnit":"m.s-1","parameterCategory":2,"la1":30.2991,"la2":30.254,"lo1":-89.0895,"lo2":-89.0444,"dy":0.0017,"dx":0.0017,"nx":28,"ny":28,"refTime":"2024-05-12T21:00:00:Z","depth":"2","parameterNumber":3,"parameterNumberName":"V-component_of_CURRENTS"},"data":[0,0,0,0,0,0,0,0,0,0,0,0,0,0,0,0,0,0,0,0,0,0,0,0,0,0,0,0,0,0,0,0,0,0,0,0,0,0,0,0,0,0,0,0,0,0,0,0,0,0,0,0,0,0,0,0,0,0,-0.0304,-0.0304,0,-0.031,-0.031,-0.031,-0.0328,-0.0328,-0.0328,-0.0329,-0.033,-0.033,-0.0329,0,0,0,0,0,0,0,0,0,0,0,0,0,-0.0281,-0.0281,-0.0304,-0.0304,-0.0304,-0.031,-0.031,-0.031,-0.0328,-0.0328,-0.0329,-0.0329,-0.033,-0.033,-0.0329,0,0,0,0,0,0,0,0,0,0,0,0,0,-0.0289,-0.0282,-0.0304,-0.0314,-0.0315,-0.031,-0.031,-0.031,-0.0328,-0.0328,-0.0329,-0.0329,-0.033,-0.033,-0.0329,-0.0314,0,0,-0.0328,-0.0327,0,0,0,0,0,0,0,0,-0.0289,-0.029,-0.0312,-0.0313,-0.0314,-0.0319,-0.0302,-0.0311,-0.0327,-0.0323,-0.0329,-0.033,-0.0325,-0.0325,-0.0325,-0.0314,-0.0314,-0.0328,-0.0327,-0.0327,-0.0327,0,0,0,0,0,0,0,-0.0288,-0.029,-0.0306,-0.0312,-0.0314,-0.0308,-0.0311,-0.0304,-0.032,-0.0323,-0.0324,-0.0325,-0.0326,-0.0325,-0.0325,-0.0314,-0.0328,-0.0327,-0.0327,-0.0327,-0.0276,-0.0275,0,0,0,0,0,0,-0.0289,-0.0289,-0.0306,-0.0307,-0.0303,-0.0309,-0.0311,-0.0317,-0.0321,-0.0322,-0.0324,-0.0326,-0.0326,-0.0326,-0.0325,-0.0309,-0.0327,-0.0327,-0.0326,-0.0277,-0.0276,-0.0275,0,0,0,0,0,0,-0.0288,-0.029,-0.0306,-0.0298,-0.03,-0.0309,-0.0315,-0.0316,-0.0318,-0.0322,-0.0323,-0.0325,-0.0326,-0.0326,-0.0315,-0.0309,-0.0326,-0.0326,-0.0279,-0.0277,-0.0276,-0.0276,0,0,0,0,0,0,-0.0288,-0.029,-0.0293,-0.0298,-0.03,-0.0303,-0.0314,-0.0316,-0.0317,-0.0319,-0.0322,-0.0323,-0.0327,-0.0316,-0.0315,-0.0309,-0.0325,-0.028,-0.0278,-0.0276,-0.0277,-0.0275,-0.0272,0,0,0,0,0,-0.0287,-0.0287,-0.0293,-0.0295,-0.0304,-0.0303,-0.0303,-0.0311,-0.0317,-0.0315,-0.0314,-0.0323,-0.0303,-0.0315,-0.0313,-0.0308,-0.0281,-0.0279,-0.0276,-0.0278,-0.0275,-0.0272,0,0,0,0,0,0,-0.0275,-0.0289,-0.0296,-0.03,-0.0302,-0.0306,-0.0305,-0.0309,-0.0306,-0.0308,-0.0312,-0.0312,-0.0301,-0.0297,-0.031,-0.0284,-0.0292,-0.0289,-0.0294,-0.0291,-0.0288,-0.03,-0.0325,0,0,0,0,0,-0.0274,-0.0281,-0.0289,-0.0291,-0.0292,-0.0298,-0.0298,-0.0303,-0.0302,-0.0303,-0.0303,-0.0297,-0.0289,-0.0285,-0.0278,-0.0264,-0.0267,-0.0256,-0.0254,-0.0252,-0.0259,-0.0258,-0.0257,-0.0268,-0.0268,-0.0268,0,0,-0.0269,-0.0278,-0.0282,-0.0289,-0.0292,-0.0293,-0.0299,-0.0299,-0.0299,-0.0302,-0.0297,-0.029,-0.0282,-0.0269,-0.0263,-0.0267,-0.0247,-0.0249,-0.0248,-0.0256,-0.0255,-0.0255,-0.0254,-0.0266,-0.0266,-0.0266,0,0,-0.0264,-0.0272,-0.0277,-0.0279,-0.0284,-0.0287,-0.0286,-0.0289,-0.029,-0.0282,-0.0282,-0.0273,-0.0259,-0.0255,-0.0251,-0.0227,-0.0235,-0.0217,-0.0217,-0.0216,-0.0216,-0.0216,-0.0209,-0.0209,-0.0216,-0.0216,-0.0216,0,-0.0257,-0.0269,-0.0275,-0.0279,-0.0281,-0.0284,-0.0285,-0.0283,-0.0281,-0.0279,-0.028,-0.0261,-0.0255,-0.0243,-0.0234,-0.0225,-0.0222,-0.0234,-0.0215,-0.0215,-0.0215,-0.0209,-0.0208,-0.0216,-0.0216,-0.0216,-0.0216,0,-0.0259,-0.0265,-0.0265,-0.0276,-0.0275,-0.0275,-0.0276,-0.0272,-0.0272,-0.0272,-0.0261,-0.0252,-0.0243,-0.0233,-0.0228,-0.0217,-0.0214,-0.0215,-0.023,-0.0215,-0.0208,-0.0207,-0.0215,-0.0215,-0.0216,-0.0216,0,0,-0.025,-0.0265,-0.0265,-0.0271,-0.0275,-0.0275,-0.027,-0.0269,-0.0266,-0.0262,-0.0256,-0.0241,-0.0241,-0.0234,-0.0224,-0.022,-0.0212,-0.0216,-0.0216,-0.0221,-0.0204,-0.0211,-0.0211,-0.0211,-0.0211,-0.0211,-0.0197,0,-0.0249,-0.026,-0.0266,-0.0269,-0.0273,-0.0273,-0.0268,-0.0266,-0.0261,-0.0252,-0.0247,-0.0234,-0.0239,-0.0228,-0.0229,-0.021,-0.0211,-0.0216,-0.0207,-0.0207,-0.0225,-0.0211,-0.0223,-0.0212,-0.0196,-0.0196,-0.0196,0,-0.025,-0.0259,-0.0267,-0.0272,-0.0273,-0.0273,-0.0269,-0.0265,-0.0253,-0.0246,-0.0242,-0.0233,-0.0221,-0.0226,-0.0216,-0.0217,-0.0215,-0.0207,-0.0207,-0.0217,-0.0213,-0.0225,-0.0212,-0.0195,-0.0195,-0.0195,-0.0195,0,-0.0247,-0.0256,-0.0266,-0.0268,-0.0274,-0.0274,-0.0273,-0.0265,-0.0244,-0.024,-0.0209,-0.0223,-0.0188,-0.0211,-0.0193,-0.0204,-0.0177,-0.0193,-0.0202,-0.0202,-0.0214,-0.0215,-0.0198,-0.0198,-0.0198,-0.0198,-0.0198,0,-0.0245,-0.025,-0.0267,-0.0271,-0.0274,-0.0277,-0.027,-0.0266,-0.0235,-0.0179,-0.0204,-0.0143,-0.0179,-0.0159,-0.0185,-0.0184,-0.0175,-0.0203,-0.0201,-0.0212,-0.0213,-0.0201,-0.0202,-0.0197,-0.0197,-0.0198,-0.0198,0,-0.0238,-0.025,-0.0261,-0.0273,-0.0275,-0.0277,-0.0254,-0.0234,-0.0207,-0.0127,-0.0111,-0.007,-0.0043,-0.0085,-0.0093,-0.0143,-0.0165,-0.0167,-0.0176,-0.0175,-0.0196,-0.0197,-0.0194,-0.0194,-0.0194,-0.0194,-0.0195,0,-0.0234,-0.0243,-0.0262,-0.0258,-0.0264,-0.0262,-0.0246,-0.0227,-0.017,-0.0053,0.0012,0.0053,0.0112,0.0064,-0.0043,-0.0123,-0.0118,-0.0179,-0.0217,-0.0199,-0.0197,-0.0197,-0.0197,-0.0225,-0.0225,-0.0225,-0.0226,0,-0.0227,-0.0239,-0.0247,-0.024,-0.0233,-0.021,-0.0165,-0.011,-0.0033,0.0069,0.023,0.0279,0.0218,0.0138,-0.001,-0.0076,-0.0182,-0.0188,-0.0158,-0.0227,-0.0228,-0.0226,-0.0225,-0.0228,-0.0228,-0.0228,-0.0227,-0.0227,-0.0218,-0.0219,-0.0224,-0.0214,-0.0192,-0.0123,-0.0061,0.0034,0.0162,0.0369,0.039,0.0504,0.033,0.0168,-0.0,-0.0183,-0.0175,-0.0229,-0.0228,-0.0227,-0.0237,-0.0238,-0.0241,-0.0241,-0.0241,-0.0241,-0.0241,0,-0.0201,-0.0194,-0.0185,-0.0154,-0.0099,-0.0093,0.0029,0.0139,0.0344,0.0502,0.0648,0.0559,0.0415,0.0234,-0.0053,-0.0238,-0.0272,-0.0275,-0.0278,-0.0275,-0.0273,-0.0285,-0.0302,-0.0303,-0.0303,-0.0303,0,0,-0.0188,-0.0172,-0.0165,-0.007,-0.0023,0.0105,0.02,0.0375,0.0524,0.0719,0.0812,0.0808,0.0538,0.0335,0.0053,-0.0108,-0.0141,-0.0145,-0.0082,-0.0052,-0.0046,-0.024,-0.0254,0,0,0,0,0]}],[{"header":{"parameterUnit":"m.s-1","parameterCategory":2,"la1":30.2991,"la2":30.254,"lo1":-89.0895,"lo2":-89.0444,"dy":0.0017,"dx":0.0017,"nx":28,"ny":28,"refTime":"2024-05-12T21:00:00:Z","depth":"4","parameterNumber":2,"parameterNumberName":"U-component_of_CURRENTS"},"data":[0,0,0,0,0,0,0,0,0,0,0,0,0,0,0,0,0,0,0,0,0,0,0,0,0,0,0,0,0,0,0,0,0,0,0,0,0,0,0,0,0,0,0,0,0,0,0,0,0,0,0,0,0,0,0,0,0,0,0.0176,0.0176,0,0.0186,0.0186,0.0186,0.0204,0.0205,0.0205,0.0205,0.0226,0.0226,0.0227,0,0,0,0,0,0,0,0,0,0,0,0,0,0.0125,0.0126,0.0176,0.0176,0.0176,0.0186,0.0186,0.0186,0.0204,0.0205,0.0205,0.0206,0.0226,0.0226,0.0227,0,0,0,0,0,0,0,0,0,0,0,0,0,0.0142,0.0127,0.0176,0.0186,0.0187,0.0186,0.0186,0.0186,0.0204,0.0205,0.0205,0.0206,0.0226,0.0226,0.0227,0.0218,0,0,0.0228,0.0228,0,0,0,0,0,0,0,0,0.0141,0.0144,0.0185,0.0185,0.0187,0.0194,0.0176,0.0197,0.0204,0.0198,0.0205,0.0206,0.0216,0.0217,0.0218,0.0219,0.022,0.0228,0.0228,0.0228,0.0228,0,0,0,0,0,0,0,0.014,0.0144,0.018,0.0185,0.0186,0.0174,0.0178,0.018,0.0204,0.0198,0.02,0.0201,0.0217,0.0218,0.0219,0.0221,0.0228,0.0228,0.0228,0.0228,0.0214,0.0214,0,0,0,0,0,0,0.0141,0.0143,0.0179,0.018,0.0165,0.0175,0.0179,0.0191,0.0204,0.0206,0.02,0.0201,0.0217,0.0218,0.0219,0.0218,0.0228,0.0229,0.0229,0.0215,0.0214,0.0214,0,0,0,0,0,0,0.014,0.0145,0.0179,0.0161,0.0164,0.0176,0.0189,0.0191,0.0191,0.0205,0.0208,0.0197,0.0217,0.0219,0.0216,0.0218,0.0229,0.0229,0.0216,0.0215,0.0214,0.0209,0,0,0,0,0,0,0.0139,0.0145,0.0153,0.0161,0.0165,0.0176,0.0189,0.0191,0.019,0.0192,0.0203,0.0206,0.0218,0.0215,0.0216,0.0219,0.0229,0.0216,0.0215,0.0214,0.021,0.0208,0.0207,0,0,0,0,0,0.0137,0.0146,0.0154,0.0158,0.0177,0.0176,0.0177,0.0186,0.019,0.0187,0.0192,0.0206,0.0209,0.0215,0.0216,0.0219,0.0217,0.0216,0.0214,0.0211,0.0209,0.0207,0,0,0,0,0,0,0.0123,0.0149,0.0157,0.0173,0.0173,0.0179,0.0179,0.0181,0.0182,0.0184,0.0197,0.0199,0.0198,0.0203,0.0208,0.021,0.0216,0.0215,0.0213,0.0211,0.0209,0.0222,0.023,0,0,0,0,0,0.0125,0.0144,0.0154,0.0165,0.0165,0.0169,0.017,0.0173,0.0175,0.0177,0.0182,0.0187,0.0193,0.0197,0.0199,0.0198,0.0226,0.02,0.0199,0.0197,0.0207,0.024,0.0243,0.0209,0.0209,0.0209,0,0,0.0122,0.0138,0.0149,0.0163,0.0166,0.0167,0.0171,0.0169,0.0171,0.0178,0.0179,0.018,0.0189,0.0191,0.0191,0.0197,0.0223,0.0196,0.0195,0.0205,0.0239,0.0243,0.0246,0.0209,0.0209,0.0209,0,0,0.0122,0.0139,0.0153,0.0153,0.0157,0.016,0.0157,0.0157,0.016,0.0155,0.0164,0.0168,0.0166,0.0183,0.0189,0.0178,0.021,0.0171,0.0179,0.0211,0.0214,0.0218,0.0268,0.0276,0.0174,0.0174,0.0174,0,0.0114,0.0138,0.0151,0.0156,0.0156,0.0156,0.0156,0.0158,0.0155,0.0158,0.0154,0.0163,0.0169,0.0188,0.0183,0.0178,0.0203,0.0188,0.0211,0.0215,0.0219,0.0269,0.0278,0.0173,0.0174,0.0174,0.0174,0,0.0126,0.0136,0.0138,0.0154,0.0152,0.0149,0.0153,0.015,0.0148,0.0153,0.0159,0.0165,0.0176,0.0174,0.0176,0.0201,0.0214,0.0204,0.0221,0.0222,0.0274,0.0284,0.0173,0.0173,0.0173,0.0173,0,0,0.0125,0.0144,0.0144,0.0146,0.015,0.0147,0.0151,0.0156,0.0161,0.016,0.0174,0.0179,0.0183,0.0191,0.0195,0.022,0.0269,0.0221,0.0223,0.0281,0.0354,0.0346,0.0356,0.0261,0.0262,0.0263,0.0384,0,0.0125,0.0136,0.0147,0.0144,0.0145,0.0146,0.0149,0.0153,0.0158,0.017,0.0187,0.0199,0.019,0.0197,0.022,0.0255,0.0292,0.0238,0.0336,0.034,0.034,0.0365,0.0267,0.0391,0.0394,0.0395,0.0396,0,0.0134,0.0138,0.0141,0.0141,0.014,0.0137,0.0142,0.0143,0.0165,0.0173,0.0193,0.0208,0.025,0.0236,0.0317,0.0282,0.0319,0.0348,0.0353,0.0355,0.0348,0.0387,0.0414,0.0413,0.0411,0.041,0.0409,0,0.0129,0.0133,0.0135,0.0134,0.0135,0.0132,0.0129,0.0141,0.0154,0.0181,0.0208,0.0241,0.0286,0.032,0.0388,0.0351,0.0488,0.0446,0.0482,0.0483,0.0457,0.0452,0.051,0.051,0.051,0.051,0.0509,0,0.0128,0.0127,0.013,0.0127,0.0121,0.0121,0.0121,0.0127,0.0156,0.02,0.0211,0.0272,0.0309,0.0391,0.0417,0.0499,0.0521,0.05,0.0514,0.0452,0.0445,0.0465,0.0458,0.0514,0.0513,0.0512,0.0511,0,0.0122,0.0129,0.0125,0.0121,0.0119,0.011,0.0118,0.0131,0.0156,0.0222,0.0242,0.032,0.0421,0.0475,0.0566,0.0559,0.0619,0.0645,0.0613,0.0621,0.0581,0.0572,0.0674,0.0675,0.0676,0.0676,0.0677,0,0.0123,0.0121,0.0116,0.0117,0.0113,0.0105,0.0112,0.0126,0.016,0.027,0.032,0.043,0.0486,0.0624,0.0649,0.0712,0.0701,0.0725,0.0606,0.0595,0.0598,0.0589,0.0579,0.0678,0.0678,0.0678,0.0678,0,0.0113,0.0111,0.0107,0.0114,0.0117,0.0128,0.0147,0.0175,0.0233,0.0266,0.0407,0.0474,0.0595,0.0648,0.0714,0.0746,0.0692,0.0731,0.0727,0.0615,0.06,0.0601,0.0591,0.068,0.068,0.068,0.068,0,0.0102,0.0098,0.0103,0.0109,0.0125,0.0164,0.0163,0.023,0.0267,0.0387,0.0447,0.0559,0.0627,0.0672,0.0736,0.0762,0.0723,0.068,0.0679,0.0677,0.0614,0.0591,0.0698,0,0,0,0,0,0.0092,0.0097,0.0104,0.0119,0.0144,0.0165,0.0205,0.0216,0.0282,0.0384,0.0413,0.0527,0.0621,0.0664,0.0689,0.0703,0.0707,0.0725,0.0651,0.0692,0.069,0.0611,0,0,0,0,0,0,0.0086,0.0091,0.0101,0.014,0.0163,0.0199,0.0234,0.0277,0.0327,0.0397,0.0451,0.0499,0.0587,0.0617,0.0685,0.0694,0.0638,0.0776,0.0775,0.0693,0.0691,0.0689,0.0607,0,0,0,0,0]},{"header":{"parameterUnit":"m.s-1","parameterCategory":2,"la1":30.2991,"la2":30.254,"lo1":-89.0895,"lo2":-89.0444,"dy":0.0017,"dx":0.0017,"nx":28,"ny":28,"refTime":"2024-05-12T21:00:00:Z","depth":"4","parameterNumber":3,"parameterNumberName":"V-component_of_CURRENTS"},"data":[0,0,0,0,0,0,0,0,0,0,0,0,0,0,0,0,0,0,0,0,0,0,0,0,0,0,0,0,0,0,0,0,0,0,0,0,0,0,0,0,0,0,0,0,0,0,0,0,0,0,0,0,0,0,0,0,0,0,-0.0081,-0.0081,0,-0.0096,-0.0096,-0.0096,-0.0069,-0.0068,-0.0068,-0.0067,-0.0072,-0.0072,-0.0073,0,0,0,0,0,0,0,0,0,0,0,0,0,-0.0028,-0.0029,-0.0081,-0.0081,-0.0082,-0.0096,-0.0096,-0.0096,-0.0069,-0.0068,-0.0067,-0.0067,-0.0071,-0.0072,-0.0073,0,0,0,0,0,0,0,0,0,0,0,0,0,-0.0047,-0.0029,-0.0081,-0.0071,-0.007,-0.0096,-0.0096,-0.0096,-0.007,-0.0068,-0.0067,-0.0066,-0.0071,-0.0072,-0.0073,-0.0105,0,0,-0.0077,-0.0078,0,0,0,0,0,0,0,0,-0.0045,-0.0048,-0.0072,-0.0072,-0.0071,-0.0081,-0.0079,-0.0099,-0.007,-0.0069,-0.0067,-0.0065,-0.0075,-0.0076,-0.008,-0.0105,-0.0106,-0.0078,-0.0078,-0.0079,-0.0079,0,0,0,0,0,0,0,-0.0044,-0.0048,-0.0086,-0.0073,-0.0072,-0.0065,-0.0066,-0.0083,-0.0077,-0.0069,-0.0067,-0.0071,-0.0075,-0.0079,-0.008,-0.0106,-0.0077,-0.0079,-0.0079,-0.008,-0.0189,-0.0191,0,0,0,0,0,0,-0.0047,-0.0047,-0.0085,-0.0086,-0.0056,-0.0067,-0.0068,-0.0078,-0.0077,-0.0077,-0.0072,-0.007,-0.0077,-0.0078,-0.008,-0.0113,-0.0079,-0.008,-0.0081,-0.0187,-0.0189,-0.0192,0,0,0,0,0,0,-0.0045,-0.005,-0.0085,-0.0067,-0.0071,-0.0069,-0.008,-0.0079,-0.0088,-0.008,-0.0079,-0.0083,-0.0076,-0.0078,-0.0106,-0.0113,-0.0081,-0.0082,-0.0184,-0.0188,-0.019,-0.0183,0,0,0,0,0,0,-0.0044,-0.005,-0.0061,-0.0068,-0.0072,-0.0108,-0.0081,-0.008,-0.0092,-0.0089,-0.0089,-0.0088,-0.0076,-0.0105,-0.0108,-0.0114,-0.0083,-0.0182,-0.0186,-0.0189,-0.018,-0.0185,-0.019,0,0,0,0,0,-0.0042,-0.0068,-0.0062,-0.0067,-0.0087,-0.0109,-0.0111,-0.0104,-0.0094,-0.0107,-0.0109,-0.0088,-0.0132,-0.0108,-0.0111,-0.0118,-0.018,-0.0185,-0.0189,-0.0178,-0.0184,-0.0189,0,0,0,0,0,0,-0.0051,-0.0068,-0.0061,-0.009,-0.01,-0.0105,-0.0121,-0.0116,-0.0128,-0.0127,-0.0113,-0.0113,-0.0142,-0.0147,-0.012,-0.0168,-0.0154,-0.016,-0.0145,-0.0151,-0.0155,-0.0113,-0.0084,0,0,0,0,0,-0.0059,-0.0083,-0.0091,-0.0115,-0.0123,-0.0124,-0.0133,-0.013,-0.014,-0.0143,-0.0143,-0.0153,-0.0166,-0.017,-0.0188,-0.0213,-0.0194,-0.0226,-0.023,-0.0234,-0.0206,-0.0183,-0.0181,-0.0207,-0.0207,-0.0207,0,0,-0.0071,-0.0083,-0.0097,-0.0119,-0.0127,-0.0137,-0.0127,-0.015,-0.015,-0.0144,-0.0158,-0.0173,-0.0182,-0.0205,-0.0218,-0.0204,-0.0228,-0.024,-0.0242,-0.0212,-0.0187,-0.0184,-0.0181,-0.021,-0.021,-0.0209,0,0,-0.0103,-0.0116,-0.0142,-0.015,-0.0166,-0.0164,-0.0173,-0.0186,-0.0184,-0.0209,-0.02,-0.0211,-0.0248,-0.0232,-0.0233,-0.028,-0.0258,-0.031,-0.0284,-0.0263,-0.0258,-0.0254,-0.0259,-0.0255,-0.0304,-0.0304,-0.0304,0,-0.0114,-0.0137,-0.0153,-0.017,-0.017,-0.0176,-0.0185,-0.0192,-0.0209,-0.0198,-0.0217,-0.0234,-0.0248,-0.0233,-0.0254,-0.028,-0.028,-0.0253,-0.0262,-0.0257,-0.0253,-0.0258,-0.0254,-0.0304,-0.0304,-0.0304,-0.0304,0,-0.0155,-0.0166,-0.0184,-0.0197,-0.0204,-0.0219,-0.0218,-0.0225,-0.0229,-0.0221,-0.0225,-0.0242,-0.0238,-0.0262,-0.0271,-0.0255,-0.0271,-0.0271,-0.0231,-0.0249,-0.0255,-0.0251,-0.0304,-0.0304,-0.0304,-0.0304,0,0,-0.0194,-0.0207,-0.0212,-0.0199,-0.0213,-0.0216,-0.0219,-0.0206,-0.0184,-0.0211,-0.018,-0.0212,-0.0208,-0.021,-0.0223,-0.0208,-0.0202,-0.0231,-0.023,-0.0205,-0.0176,-0.0217,-0.0216,-0.0203,-0.0201,-0.02,-0.0203,0,-0.0214,-0.0231,-0.0235,-0.0233,-0.023,-0.022,-0.021,-0.0198,-0.0192,-0.0171,-0.0167,-0.0166,-0.0193,-0.0197,-0.0182,-0.02,-0.0185,-0.0202,-0.0188,-0.0187,-0.0195,-0.021,-0.0196,-0.0199,-0.0198,-0.0197,-0.0197,0,-0.0246,-0.0244,-0.0249,-0.0212,-0.0211,-0.0213,-0.017,-0.0165,-0.0132,-0.0127,-0.0107,-0.0112,-0.0101,-0.0127,-0.012,-0.0136,-0.015,-0.0158,-0.0159,-0.0182,-0.0217,-0.0175,-0.0188,-0.0189,-0.019,-0.019,-0.0191,0,-0.0245,-0.0245,-0.0239,-0.0235,-0.021,-0.02,-0.0185,-0.0152,-0.0132,-0.0101,-0.0091,-0.0065,-0.0077,-0.0068,-0.0114,-0.0115,-0.0111,-0.0111,-0.0151,-0.0155,-0.0116,-0.012,-0.0081,-0.0081,-0.0081,-0.0081,-0.0081,0,-0.025,-0.0243,-0.024,-0.0234,-0.0209,-0.0196,-0.0162,-0.0141,-0.0108,-0.0078,-0.0074,-0.0058,-0.0065,-0.0075,-0.0092,-0.0123,-0.0095,-0.0136,-0.0148,-0.0124,-0.0128,-0.0115,-0.0118,-0.0081,-0.0081,-0.0081,-0.0081,0,-0.0247,-0.025,-0.0235,-0.0216,-0.0211,-0.0194,-0.0163,-0.0132,-0.0113,-0.0077,-0.0074,-0.0065,-0.0083,-0.0096,-0.0101,-0.0117,-0.0126,-0.0141,-0.0134,-0.0149,-0.0186,-0.019,-0.0162,-0.0163,-0.0164,-0.0165,-0.0166,0,-0.0243,-0.0242,-0.0229,-0.022,-0.0216,-0.0193,-0.0172,-0.0142,-0.0114,-0.0083,-0.0067,-0.0081,-0.008,-0.0102,-0.0133,-0.0157,-0.0163,-0.0169,-0.0147,-0.0174,-0.0189,-0.0192,-0.0194,-0.0167,-0.0168,-0.0168,-0.0168,0,-0.0229,-0.0236,-0.0222,-0.0208,-0.0196,-0.0165,-0.014,-0.0116,-0.0078,-0.0076,-0.0038,-0.0047,-0.0075,-0.0098,-0.0139,-0.0153,-0.0161,-0.018,-0.0177,-0.0156,-0.018,-0.0195,-0.0196,-0.0172,-0.0171,-0.0171,-0.0171,0,-0.0221,-0.021,-0.0202,-0.0184,-0.0167,-0.013,-0.0116,-0.0079,-0.0049,-0.0015,-0.0014,-0.0029,-0.0048,-0.0099,-0.0131,-0.0161,-0.0154,-0.0142,-0.0141,-0.0137,-0.0139,-0.0167,-0.0153,0,0,0,0,0,-0.0208,-0.0192,-0.0174,-0.0144,-0.0126,-0.0113,-0.0086,-0.0072,-0.005,-0.0011,-0.0,-0.0016,-0.0056,-0.0084,-0.0113,-0.0166,-0.0179,-0.0204,-0.0169,-0.0191,-0.0187,-0.0197,0,0,0,0,0,0,-0.0195,-0.018,-0.0166,-0.0117,-0.009,-0.0058,-0.0037,-0.0024,0.0004,0.0014,-0.0003,-0.0022,-0.0067,-0.003,-0.011,-0.0126,-0.0107,-0.0233,-0.0234,-0.0194,-0.019,-0.0187,-0.0196,0,0,0,0,0]}]]